,,,PA_Meas_PMT16A,,PR_Meas_QMR101_102,,RH_Meas_QMH101,,SR_Meas_QMS101,,TA_Meas_QMH101,,GenWind,,GenWind,
date,time,status,PA,status,PR,status,RH,status,SR,status,TA,status,DirAvg,status,SpdAvg,
2008-05-05, 00:00:04,VALID,1004,VALID,0,VALID,85.123,VALID,0,VALID,24.4646,VALID,350,VALID,1.83633,
2008-05-05, 00:01:04,VALID,1004,VALID,0,VALID,85.2146,VALID,0,VALID,24.4257,VALID,330,VALID,0.850391,
2008-05-05, 00:02:04,VALID,1003.97,VALID,0,VALID,85.8402,VALID,0,VALID,24.4062,VALID,205,VALID,0.698047,
2008-05-05, 00:03:04,VALID,1003.95,VALID,0,VALID,85.9775,VALID,0,VALID,24.3867,VALID,322,VALID,0.651563,
2008-05-05, 00:04:04,VALID,1003.95,VALID,0,VALID,86.1453,VALID,0,VALID,24.3673,VALID,290,VALID,1.0832,
2008-05-05, 00:05:04,VALID,1003.91,VALID,0,VALID,86.0995,VALID,0,VALID,24.3478,VALID,319,VALID,1.62656,
2008-05-05, 00:06:04,VALID,1003.96,VALID,0,VALID,86.481,VALID,0,VALID,24.3283,VALID,313,VALID,1.38281,
2008-05-05, 00:07:04,VALID,1003.92,VALID,0,VALID,86.9692,VALID,0,VALID,24.3088,VALID,293,VALID,0.919922,
2008-05-05, 00:08:04,VALID,1003.91,VALID,0,VALID,87.4422,VALID,0,VALID,24.2699,VALID,282,VALID,1.15977,
2008-05-05, 00:09:04,VALID,1003.91,VALID,0,VALID,87.5185,VALID,0,VALID,24.231,VALID,293,VALID,1.31484,
2008-05-05, 00:10:04,VALID,1003.89,VALID,0,VALID,87.8008,VALID,0,VALID,24.2115,VALID,281,VALID,1.48281,
2008-05-05, 00:11:04,VALID,1003.89,VALID,0,VALID,88.3501,VALID,0,VALID,24.1531,VALID,285,VALID,1.59375,
2008-05-05, 00:12:04,VALID,1003.91,VALID,0,VALID,88.907,VALID,0,VALID,24.0947,VALID,282,VALID,1.37305,
2008-05-05, 00:13:04,VALID,1003.85,VALID,0,VALID,88.9833,VALID,0,VALID,24.0345,VALID,262,VALID,1.17344,
2008-05-05, 00:14:04,VALID,1003.87,VALID,0,VALID,89.4334,VALID,0,VALID,23.9779,VALID,292,VALID,1.38242,
2008-05-05, 00:15:04,VALID,1003.87,VALID,0,VALID,89.9064,VALID,0,VALID,23.9195,VALID,281,VALID,0.854297,
2008-05-05, 00:16:04,VALID,1003.83,VALID,0,VALID,90.5472,VALID,0,VALID,23.8611,VALID,299,VALID,0.446484,
2008-05-05, 00:17:04,VALID,1003.79,VALID,0,VALID,90.7226,VALID,0,VALID,23.8027,VALID,227,VALID,0.446875,
2008-05-05, 00:18:04,VALID,1003.75,VALID,0.5,VALID,90.921,VALID,0,VALID,23.7637,VALID,176,VALID,0.233594,
2008-05-05, 00:19:04,VALID,1003.72,VALID,0,VALID,90.8981,VALID,0,VALID,23.7248,VALID,287,VALID,1.36094,
2008-05-05, 00:20:04,VALID,1003.72,VALID,0,VALID,91.0202,VALID,0,VALID,23.7053,VALID,282,VALID,0.920313,
2008-05-05, 00:21:04,VALID,1003.73,VALID,0,VALID,91.3635,VALID,0,VALID,23.7053,VALID,253,VALID,0.190234,
2008-05-05, 00:22:04,VALID,1003.7,VALID,0,VALID,91.5389,VALID,0,VALID,23.6877,VALID,220,VALID,0.48125,
2008-05-05, 00:23:04,VALID,1003.67,VALID,0,VALID,91.7449,VALID,0,VALID,23.6275,VALID,285,VALID,0.650391,
2008-05-05, 00:24:04,VALID,1003.64,VALID,0,VALID,91.9128,VALID,0,VALID,23.6275,VALID,226,VALID,0.295312,
2008-05-05, 00:25:04,VALID,1003.61,VALID,0,VALID,92.0882,VALID,0,VALID,23.5885,VALID,228,VALID,0.260156,
2008-05-05, 00:26:04,VALID,1003.61,VALID,0,VALID,92.3018,VALID,0,VALID,23.5885,VALID,240,VALID,0.332031,
2008-05-05, 00:27:04,VALID,1003.59,VALID,0,VALID,92.6222,VALID,0,VALID,23.5496,VALID,236,VALID,0.084375,
2008-05-05, 00:28:04,VALID,1003.56,VALID,0,VALID,92.5917,VALID,0,VALID,23.5302,VALID,249,VALID,0.844922,
2008-05-05, 00:29:04,VALID,1003.56,VALID,0,VALID,92.7138,VALID,0,VALID,23.4894,VALID,282,VALID,0.357422,
2008-05-05, 00:30:04,VALID,1003.49,VALID,0,VALID,92.6528,VALID,0,VALID,23.4912,VALID,278,VALID,0.305859,
2008-05-05, 00:31:04,VALID,1003.5,VALID,0,VALID,92.7443,VALID,0,VALID,23.4718,VALID,244,VALID,0.479688,
2008-05-05, 00:32:04,VALID,1003.41,VALID,0,VALID,92.9198,VALID,0,VALID,23.4311,VALID,244,VALID,0.327734,
2008-05-05, 00:33:04,VALID,1003.43,VALID,0,VALID,92.9732,VALID,0,VALID,23.4523,VALID,262,VALID,0.486328,
2008-05-05, 00:34:04,VALID,1003.43,VALID,0,VALID,93.1105,VALID,0,VALID,23.4311,VALID,262,VALID,0.126172,
2008-05-05, 00:35:04,VALID,1003.38,VALID,0,VALID,93.08,VALID,0,VALID,23.4311,VALID,233,VALID,0.164844,
2008-05-05, 00:36:04,VALID,1003.35,VALID,0,VALID,93.2402,VALID,0,VALID,23.4328,VALID,234,VALID,0,
2008-05-05, 00:37:04,VALID,1003.35,VALID,0,VALID,93.2783,VALID,0,VALID,23.4328,VALID,295,VALID,0.213672,
2008-05-05, 00:38:04,VALID,1003.32,VALID,0,VALID,93.1334,VALID,0,VALID,23.4134,VALID,295,VALID,0.510156,
2008-05-05, 00:39:04,VALID,1003.33,VALID,0,VALID,93.1639,VALID,0,VALID,23.3939,VALID,295,VALID,0.319141,
2008-05-05, 00:40:04,VALID,1003.28,VALID,0,VALID,93.2478,VALID,0,VALID,23.4134,VALID,314,VALID,0.466406,
2008-05-05, 00:41:04,VALID,1003.26,VALID,0,VALID,93.347,VALID,0,VALID,23.3939,VALID,324,VALID,0.357422,
2008-05-05, 00:42:04,VALID,1003.27,VALID,0,VALID,93.2325,VALID,0,VALID,23.355,VALID,345,VALID,0.530078,
2008-05-05, 00:43:04,VALID,1003.22,VALID,0,VALID,93.4385,VALID,0,VALID,23.3744,VALID,345,VALID,0.348828,
2008-05-05, 00:44:04,VALID,1003.18,VALID,0,VALID,93.408,VALID,0,VALID,23.355,VALID,345,VALID,0.00859375,
2008-05-05, 00:45:04,VALID,1003.16,VALID,0,VALID,93.4996,VALID,0,VALID,23.3355,VALID,345,VALID,0.317187,
2008-05-05, 00:46:04,VALID,1003.15,VALID,0,VALID,93.4843,VALID,0,VALID,23.316,VALID,346,VALID,0.480859,
2008-05-05, 00:47:04,VALID,1003.12,VALID,0,VALID,93.6064,VALID,0,VALID,23.2948,VALID,347,VALID,0.472266,
2008-05-05, 00:48:04,VALID,1003.11,VALID,0,VALID,93.5758,VALID,0,VALID,23.2754,VALID,347,VALID,0.397656,
2008-05-05, 00:49:04,VALID,1003.06,VALID,0,VALID,93.614,VALID,0,VALID,23.2771,VALID,347,VALID,0.0382813,
2008-05-05, 00:50:04,VALID,1003.05,VALID,0,VALID,93.6826,VALID,0,VALID,23.2559,VALID,347,VALID,0.0777344,
2008-05-05, 00:51:04,VALID,1003.02,VALID,0,VALID,93.7208,VALID,0,VALID,23.2364,VALID,347,VALID,0.517187,
2008-05-05, 00:52:04,VALID,1003.03,VALID,0,VALID,93.8429,VALID,0,VALID,23.2382,VALID,348,VALID,0.473828,
2008-05-05, 00:53:04,VALID,1002.97,VALID,0,VALID,93.8123,VALID,0,VALID,23.2187,VALID,346,VALID,0.701563,
2008-05-05, 00:54:04,VALID,1002.93,VALID,0,VALID,93.8734,VALID,0,VALID,23.2187,VALID,347,VALID,0.337891,
2008-05-05, 00:55:04,VALID,1002.94,VALID,0,VALID,93.9039,VALID,0,VALID,23.2187,VALID,347,VALID,0.142578,
2008-05-05, 00:56:04,VALID,1002.93,VALID,0,VALID,93.9344,VALID,0,VALID,23.1993,VALID,346,VALID,0,
2008-05-05, 00:57:04,VALID,1002.91,VALID,0,VALID,93.881,VALID,0,VALID,23.178,VALID,346,VALID,0.448047,
2008-05-05, 00:58:04,VALID,1002.92,VALID,0,VALID,93.8886,VALID,0,VALID,23.1993,VALID,351,VALID,0.560938,
2008-05-05, 00:59:04,VALID,1002.91,VALID,0,VALID,93.8276,VALID,0,VALID,23.178,VALID,330,VALID,0.336328,
2008-05-05, 01:00:04,VALID,1002.92,VALID,0,VALID,93.8657,VALID,0,VALID,23.1993,VALID,358,VALID,0.597266,
2008-05-05, 01:01:04,VALID,1002.92,VALID,0,VALID,93.8047,VALID,0,VALID,23.1798,VALID,353,VALID,0.771094,
2008-05-05, 01:02:04,VALID,1002.93,VALID,0,VALID,93.8657,VALID,0,VALID,23.1603,VALID,339,VALID,0.495703,
2008-05-05, 01:03:04,VALID,1002.92,VALID,0,VALID,93.7589,VALID,0,VALID,23.1391,VALID,354,VALID,0.753125,
2008-05-05, 01:04:04,VALID,1002.92,VALID,0,VALID,93.8123,VALID,0,VALID,23.1586,VALID,6,VALID,0.19375,
2008-05-05, 01:05:04,VALID,1002.9,VALID,0,VALID,93.8047,VALID,0,VALID,23.1603,VALID,6,VALID,0.208984,
2008-05-05, 01:06:04,VALID,1002.92,VALID,0,VALID,93.6292,VALID,0,VALID,23.1798,VALID,298,VALID,0.565234,
2008-05-05, 01:07:04,VALID,1002.89,VALID,0,VALID,93.6598,VALID,0,VALID,23.1798,VALID,302,VALID,0.48125,
2008-05-05, 01:08:04,VALID,1002.9,VALID,0,VALID,93.5911,VALID,0,VALID,23.1993,VALID,296,VALID,0.828125,
2008-05-05, 01:09:04,VALID,1002.88,VALID,0,VALID,93.4538,VALID,0,VALID,23.1975,VALID,294,VALID,0.416406,
2008-05-05, 01:10:04,VALID,1002.91,VALID,0,VALID,93.202,VALID,0,VALID,23.1993,VALID,300,VALID,0.689062,
2008-05-05, 01:11:04,VALID,1002.91,VALID,0,VALID,93.1257,VALID,0,VALID,23.2382,VALID,307,VALID,0.169922,
2008-05-05, 01:12:04,VALID,1002.9,VALID,0,VALID,93.0495,VALID,0,VALID,23.2577,VALID,308,VALID,0.03125,
2008-05-05, 01:13:04,VALID,1002.93,VALID,0,VALID,92.8892,VALID,0,VALID,23.2382,VALID,343,VALID,0.608984,
2008-05-05, 01:14:04,VALID,1002.93,VALID,0,VALID,92.813,VALID,0,VALID,23.2382,VALID,356,VALID,0.611719,
2008-05-05, 01:15:04,VALID,1002.93,VALID,0,VALID,92.9121,VALID,0,VALID,23.217,VALID,357,VALID,0.695313,
2008-05-05, 01:16:04,VALID,1002.93,VALID,0,VALID,92.9961,VALID,0,VALID,23.2187,VALID,357,VALID,0.538672,
2008-05-05, 01:17:04,VALID,1002.92,VALID,0,VALID,93.0418,VALID,0,VALID,23.2187,VALID,356,VALID,0.703906,
2008-05-05, 01:18:04,VALID,1002.94,VALID,0,VALID,93.0952,VALID,0,VALID,23.1798,VALID,341,VALID,0.791406,
2008-05-05, 01:19:04,VALID,1002.93,VALID,0,VALID,93.1639,VALID,0,VALID,23.1391,VALID,343,VALID,0.43125,
2008-05-05, 01:20:04,VALID,1002.92,VALID,0,VALID,93.2859,VALID,0,VALID,23.1409,VALID,352,VALID,0.257422,
2008-05-05, 01:21:04,VALID,1002.87,VALID,0,VALID,93.2631,VALID,0,VALID,23.1409,VALID,352,VALID,0.0121094,
2008-05-05, 01:22:04,VALID,1002.89,VALID,0,VALID,93.3546,VALID,0,VALID,23.1409,VALID,351,VALID,0.01875,
2008-05-05, 01:23:04,VALID,1002.88,VALID,0,VALID,93.3546,VALID,0,VALID,23.1409,VALID,351,VALID,0,
2008-05-05, 01:24:04,VALID,1002.9,VALID,0,VALID,93.3775,VALID,0,VALID,23.1409,VALID,351,VALID,0,
2008-05-05, 01:25:04,VALID,1002.88,VALID,0,VALID,93.3699,VALID,0.100563,VALID,23.1002,VALID,351,VALID,0.0382813,
2008-05-05, 01:26:04,VALID,1002.87,VALID,0,VALID,93.3012,VALID,0,VALID,23.1002,VALID,348,VALID,0.130469,
2008-05-05, 01:27:04,VALID,1002.89,VALID,0,VALID,93.2783,VALID,0.100563,VALID,23.1197,VALID,325,VALID,0.497656,
2008-05-05, 01:28:04,VALID,1002.85,VALID,0,VALID,93.202,VALID,0,VALID,23.1409,VALID,282,VALID,0.515625,
2008-05-05, 01:29:04,VALID,1002.89,VALID,0,VALID,93.1944,VALID,0,VALID,23.1197,VALID,282,VALID,0.137891,
2008-05-05, 01:30:04,VALID,1002.89,VALID,0,VALID,92.9808,VALID,0,VALID,23.1391,VALID,338,VALID,0.455859,
2008-05-05, 01:31:04,VALID,1002.88,VALID,0,VALID,93.0189,VALID,0,VALID,23.1409,VALID,341,VALID,0.146875,
2008-05-05, 01:32:04,VALID,1002.89,VALID,0,VALID,93.0189,VALID,0,VALID,23.1409,VALID,310,VALID,0.191406,
2008-05-05, 01:33:04,VALID,1002.91,VALID,0,VALID,92.8664,VALID,0,VALID,23.1002,VALID,287,VALID,0.342187,
2008-05-05, 01:34:04,VALID,1002.88,VALID,0,VALID,92.7596,VALID,0,VALID,23.1409,VALID,287,VALID,0.347656,
2008-05-05, 01:35:04,VALID,1002.9,VALID,0,VALID,92.6451,VALID,0,VALID,23.1603,VALID,304,VALID,0.356641,
2008-05-05, 01:36:04,VALID,1002.91,VALID,0,VALID,92.5002,VALID,0,VALID,23.178,VALID,272,VALID,0.492578,
2008-05-05, 01:37:04,VALID,1002.91,VALID,0,VALID,92.2484,VALID,0,VALID,23.2187,VALID,280,VALID,0.790234,
2008-05-05, 01:38:04,VALID,1002.93,VALID,0,VALID,92.1035,VALID,0.100563,VALID,23.2364,VALID,279,VALID,0.224219,
2008-05-05, 01:39:04,VALID,1002.94,VALID,0,VALID,91.6991,VALID,0.100563,VALID,23.2364,VALID,281,VALID,0.881641,
2008-05-05, 01:40:04,VALID,1002.96,VALID,0,VALID,91.6229,VALID,0,VALID,23.2966,VALID,291,VALID,0.177734,
2008-05-05, 01:41:04,VALID,1002.98,VALID,0,VALID,91.6686,VALID,0,VALID,23.316,VALID,291,VALID,0.128125,
2008-05-05, 01:42:04,VALID,1002.97,VALID,0,VALID,91.4169,VALID,0,VALID,23.3143,VALID,294,VALID,0.380859,
2008-05-05, 01:43:04,VALID,1002.98,VALID,0,VALID,91.4398,VALID,0,VALID,23.3143,VALID,294,VALID,0.160938,
2008-05-05, 01:44:04,VALID,1002.98,VALID,0,VALID,91.333,VALID,0,VALID,23.3143,VALID,279,VALID,0.553125,
2008-05-05, 01:45:04,VALID,1002.99,VALID,0,VALID,91.249,VALID,0,VALID,23.2948,VALID,283,VALID,0.661719,
2008-05-05, 01:46:04,VALID,1002.96,VALID,0,VALID,91.0431,VALID,0,VALID,23.3355,VALID,299,VALID,0.580859,
2008-05-05, 01:47:04,VALID,1002.95,VALID,0,VALID,91.1346,VALID,0,VALID,23.355,VALID,297,VALID,0.194141,
2008-05-05, 01:48:04,VALID,1002.87,VALID,0,VALID,90.9973,VALID,0,VALID,23.355,VALID,305,VALID,0.451562,
2008-05-05, 01:49:04,VALID,1002.89,VALID,0,VALID,90.8676,VALID,0,VALID,23.355,VALID,270,VALID,0.425391,
2008-05-05, 01:50:04,VALID,1002.88,VALID,0,VALID,90.7455,VALID,0,VALID,23.3744,VALID,320,VALID,0.272656,
2008-05-05, 01:51:04,VALID,1002.85,VALID,0,VALID,90.6845,VALID,0,VALID,23.4134,VALID,290,VALID,0.483594,
2008-05-05, 01:52:04,VALID,1002.85,VALID,0,VALID,90.6769,VALID,0,VALID,23.3939,VALID,281,VALID,0.326953,
2008-05-05, 01:53:04,VALID,1002.84,VALID,0,VALID,90.6387,VALID,0,VALID,23.3939,VALID,282,VALID,0.392969,
2008-05-05, 01:54:04,VALID,1002.84,VALID,0,VALID,90.8447,VALID,0,VALID,23.4134,VALID,329,VALID,0.128516,
2008-05-05, 01:55:04,VALID,1002.83,VALID,0,VALID,90.8981,VALID,0,VALID,23.3744,VALID,330,VALID,0.0792969,
2008-05-05, 01:56:04,VALID,1002.83,VALID,0,VALID,91.0049,VALID,0,VALID,23.3744,VALID,330,VALID,0,
2008-05-05, 01:57:04,VALID,1002.83,VALID,0,VALID,91.1499,VALID,0,VALID,23.3355,VALID,330,VALID,0,
2008-05-05, 01:58:04,VALID,1002.83,VALID,0,VALID,91.3635,VALID,0,VALID,23.316,VALID,330,VALID,0,
2008-05-05, 01:59:04,VALID,1002.81,VALID,0,VALID,91.5008,VALID,0,VALID,23.2577,VALID,330,VALID,0.224219,
2008-05-05, 02:00:04,VALID,1002.79,VALID,0,VALID,91.6457,VALID,0,VALID,23.2187,VALID,354,VALID,0.317578,
2008-05-05, 02:01:04,VALID,1002.8,VALID,0,VALID,91.928,VALID,0,VALID,23.1798,VALID,355,VALID,0,
2008-05-05, 02:02:04,VALID,1002.81,VALID,0,VALID,91.8822,VALID,0,VALID,23.1409,VALID,20,VALID,0.258594,
2008-05-05, 02:03:04,VALID,1002.76,VALID,0,VALID,91.9738,VALID,0,VALID,23.1002,VALID,20,VALID,0.188281,
2008-05-05, 02:04:04,VALID,1002.74,VALID,0,VALID,92.2103,VALID,0,VALID,23.0825,VALID,20,VALID,0.0195313,
2008-05-05, 02:05:04,VALID,1002.75,VALID,0,VALID,92.4086,VALID,0,VALID,23.0418,VALID,20,VALID,0,
2008-05-05, 02:06:04,VALID,1002.72,VALID,0,VALID,92.4391,VALID,0,VALID,23.0436,VALID,20,VALID,0,
2008-05-05, 02:07:04,VALID,1002.72,VALID,0,VALID,92.4925,VALID,0,VALID,22.9834,VALID,20,VALID,0,
2008-05-05, 02:08:04,VALID,1002.67,VALID,0,VALID,92.6604,VALID,0,VALID,22.9834,VALID,20,VALID,0,
2008-05-05, 02:09:04,VALID,1002.66,VALID,0,VALID,92.7748,VALID,0,VALID,22.964,VALID,20,VALID,0,
2008-05-05, 02:10:04,VALID,1002.65,VALID,0,VALID,92.9655,VALID,0,VALID,22.9657,VALID,20,VALID,0,
2008-05-05, 02:11:04,VALID,1002.67,VALID,0,VALID,93.1791,VALID,0,VALID,22.9251,VALID,20,VALID,0,
2008-05-05, 02:12:04,VALID,1002.68,VALID,0,VALID,93.2783,VALID,0,VALID,22.9463,VALID,20,VALID,0,
2008-05-05, 02:13:04,VALID,1002.63,VALID,0,VALID,93.3088,VALID,0,VALID,22.9073,VALID,20,VALID,0.155078,
2008-05-05, 02:14:04,VALID,1002.62,VALID,0,VALID,93.4156,VALID,0,VALID,22.9268,VALID,20,VALID,0,
2008-05-05, 02:15:04,VALID,1002.6,VALID,0,VALID,93.3546,VALID,0,VALID,22.9463,VALID,20,VALID,0,
2008-05-05, 02:16:04,VALID,1002.6,VALID,0,VALID,93.3317,VALID,0,VALID,22.9463,VALID,20,VALID,0,
2008-05-05, 02:17:04,VALID,1002.56,VALID,0,VALID,93.2554,VALID,0,VALID,22.9657,VALID,20,VALID,0,
2008-05-05, 02:18:04,VALID,1002.55,VALID,0,VALID,93.1791,VALID,0,VALID,23.0046,VALID,20,VALID,0,
2008-05-05, 02:19:04,VALID,1002.51,VALID,0,VALID,93.1791,VALID,0,VALID,22.9834,VALID,20,VALID,0,
2008-05-05, 02:20:04,VALID,1002.49,VALID,0,VALID,92.9961,VALID,0,VALID,23.0224,VALID,20,VALID,0.178516,
2008-05-05, 02:21:04,VALID,1002.46,VALID,0,VALID,92.9426,VALID,0,VALID,23.063,VALID,20,VALID,0.000390625,
2008-05-05, 02:22:04,VALID,1002.46,VALID,0,VALID,92.7824,VALID,0,VALID,23.0825,VALID,20,VALID,0.249219,
2008-05-05, 02:23:04,VALID,1002.5,VALID,0,VALID,92.6146,VALID,0,VALID,23.1019,VALID,20,VALID,0.133203,
2008-05-05, 02:24:04,VALID,1002.49,VALID,0,VALID,92.5383,VALID,0,VALID,23.1409,VALID,20,VALID,0,
2008-05-05, 02:25:04,VALID,1002.45,VALID,0,VALID,92.3857,VALID,0,VALID,23.1197,VALID,310,VALID,0.275781,
2008-05-05, 02:26:04,VALID,1002.43,VALID,0,VALID,92.3247,VALID,0,VALID,23.1603,VALID,310,VALID,0.000390625,
2008-05-05, 02:27:04,VALID,1002.47,VALID,0,VALID,92.0577,VALID,0,VALID,23.178,VALID,310,VALID,0.278906,
2008-05-05, 02:28:04,VALID,1002.44,VALID,0,VALID,91.9509,VALID,0,VALID,23.1975,VALID,343,VALID,0.341406,
2008-05-05, 02:29:04,VALID,1002.43,VALID,0,VALID,91.8517,VALID,0,VALID,23.2382,VALID,338,VALID,0.301172,
2008-05-05, 02:30:04,VALID,1002.44,VALID,0,VALID,91.7678,VALID,0,VALID,23.2771,VALID,334,VALID,0.169531,
2008-05-05, 02:31:04,VALID,1002.43,VALID,0,VALID,91.5923,VALID,0,VALID,23.2966,VALID,334,VALID,0.352734,
2008-05-05, 02:32:04,VALID,1002.43,VALID,0,VALID,91.4855,VALID,0,VALID,23.2966,VALID,349,VALID,0.223047,
2008-05-05, 02:33:04,VALID,1002.46,VALID,0,VALID,91.5389,VALID,0.100563,VALID,23.316,VALID,350,VALID,0.276953,
2008-05-05, 02:34:04,VALID,1002.46,VALID,0,VALID,91.4092,VALID,0,VALID,23.2754,VALID,354,VALID,0.652734,
2008-05-05, 02:35:04,VALID,1002.45,VALID,0,VALID,91.4626,VALID,0,VALID,23.2948,VALID,335,VALID,0.417969,
2008-05-05, 02:36:04,VALID,1002.42,VALID,0,VALID,91.4092,VALID,0.100563,VALID,23.3355,VALID,352,VALID,0.570703,
2008-05-05, 02:37:04,VALID,1002.41,VALID,0,VALID,91.4321,VALID,0,VALID,23.3143,VALID,354,VALID,0.742188,
2008-05-05, 02:38:04,VALID,1002.4,VALID,0,VALID,91.188,VALID,0.100563,VALID,23.3143,VALID,348,VALID,0.859766,
2008-05-05, 02:39:04,VALID,1002.38,VALID,0,VALID,91.3101,VALID,0.100563,VALID,23.3532,VALID,354,VALID,0.365234,
2008-05-05, 02:40:04,VALID,1002.37,VALID,0,VALID,91.2109,VALID,0.100563,VALID,23.3744,VALID,346,VALID,1.00312,
2008-05-05, 02:41:04,VALID,1002.34,VALID,0,VALID,91.1956,VALID,0,VALID,23.3727,VALID,352,VALID,0.511328,
2008-05-05, 02:42:04,VALID,1002.34,VALID,0,VALID,91.0202,VALID,0.100563,VALID,23.4116,VALID,358,VALID,0.522266,
2008-05-05, 02:43:04,VALID,1002.32,VALID,0,VALID,90.8218,VALID,0.100563,VALID,23.4505,VALID,350,VALID,0.501562,
2008-05-05, 02:44:04,VALID,1002.32,VALID,0,VALID,90.8752,VALID,0.100563,VALID,23.47,VALID,327,VALID,0.370313,
2008-05-05, 02:45:04,VALID,1002.33,VALID,0,VALID,90.7074,VALID,0.100563,VALID,23.5302,VALID,352,VALID,0.650391,
2008-05-05, 02:46:04,VALID,1002.3,VALID,0,VALID,90.6769,VALID,0,VALID,23.5478,VALID,351,VALID,0.757422,
2008-05-05, 02:47:04,VALID,1002.33,VALID,0,VALID,90.4785,VALID,0.100563,VALID,23.608,VALID,352,VALID,0.607813,
2008-05-05, 02:48:04,VALID,1002.28,VALID,0,VALID,90.3412,VALID,0.100563,VALID,23.6257,VALID,348,VALID,0.860547,
2008-05-05, 02:49:04,VALID,1002.29,VALID,0,VALID,90.0284,VALID,0,VALID,23.6841,VALID,341,VALID,0.964453,
2008-05-05, 02:50:04,VALID,1002.28,VALID,0,VALID,89.8301,VALID,0,VALID,23.7443,VALID,20,VALID,0.810547,
2008-05-05, 02:51:04,VALID,1002.29,VALID,0,VALID,89.769,VALID,0.100563,VALID,23.7832,VALID,3,VALID,0.811719,
2008-05-05, 02:52:04,VALID,1002.26,VALID,0,VALID,89.7385,VALID,0,VALID,23.8027,VALID,313,VALID,0.426562,
2008-05-05, 02:53:04,VALID,1002.27,VALID,0,VALID,89.3342,VALID,0.100563,VALID,23.7814,VALID,355,VALID,1.36563,
2008-05-05, 02:54:04,VALID,1002.27,VALID,0,VALID,89.6165,VALID,0.100563,VALID,23.8221,VALID,8,VALID,0.673047,
2008-05-05, 02:55:04,VALID,1002.27,VALID,0,VALID,89.4944,VALID,0,VALID,23.8027,VALID,349,VALID,0.972266,
2008-05-05, 02:56:04,VALID,1002.27,VALID,0,VALID,89.4028,VALID,0,VALID,23.8009,VALID,349,VALID,1.38359,
2008-05-05, 02:57:04,VALID,1002.25,VALID,0,VALID,89.296,VALID,0,VALID,23.8398,VALID,354,VALID,1.1418,
2008-05-05, 02:58:04,VALID,1002.21,VALID,0,VALID,89.1358,VALID,0.100563,VALID,23.8593,VALID,341,VALID,0.591016,
2008-05-05, 02:59:04,VALID,1002.21,VALID,0,VALID,89.3037,VALID,0,VALID,23.9195,VALID,16,VALID,0.364453,
2008-05-05, 03:00:04,VALID,1002.17,VALID,0,VALID,89.6088,VALID,0.100563,VALID,23.9389,VALID,342,VALID,0.341797,
2008-05-05, 03:01:04,VALID,1002.18,VALID,0,VALID,89.3342,VALID,0,VALID,23.9177,VALID,358,VALID,0.918359,
2008-05-05, 03:02:04,VALID,1002.18,VALID,0,VALID,89.1435,VALID,0,VALID,23.9779,VALID,354,VALID,0.974219,
2008-05-05, 03:03:04,VALID,1002.17,VALID,0,VALID,88.907,VALID,0,VALID,23.9973,VALID,357,VALID,1.45039,
2008-05-05, 03:04:04,VALID,1002.19,VALID,0,VALID,88.8917,VALID,0.100563,VALID,24.015,VALID,344,VALID,0.776563,
2008-05-05, 03:05:04,VALID,1002.18,VALID,0,VALID,88.8993,VALID,0,VALID,24.0363,VALID,329,VALID,1.19687,
2008-05-05, 03:06:04,VALID,1002.19,VALID,0,VALID,88.8765,VALID,0,VALID,24.015,VALID,4,VALID,0.791797,
2008-05-05, 03:07:04,VALID,1002.18,VALID,0,VALID,88.7697,VALID,0,VALID,24.0345,VALID,351,VALID,1.35703,
2008-05-05, 03:08:04,VALID,1002.18,VALID,0,VALID,88.7162,VALID,0,VALID,24.0947,VALID,355,VALID,1.02422,
2008-05-05, 03:09:04,VALID,1002.15,VALID,0,VALID,88.7773,VALID,0.100563,VALID,24.1142,VALID,346,VALID,0.554297,
2008-05-05, 03:10:04,VALID,1002.16,VALID,0,VALID,88.7391,VALID,0.100563,VALID,24.0734,VALID,347,VALID,0.788672,
2008-05-05, 03:11:04,VALID,1002.14,VALID,0,VALID,88.8765,VALID,0.100563,VALID,24.0947,VALID,353,VALID,0.740625,
2008-05-05, 03:12:04,VALID,1002.11,VALID,0,VALID,88.9833,VALID,0,VALID,24.0947,VALID,1,VALID,0.60625,
2008-05-05, 03:13:04,VALID,1002.08,VALID,0,VALID,89.1435,VALID,0,VALID,24.0752,VALID,3,VALID,0.832031,
2008-05-05, 03:14:04,VALID,1002.06,VALID,0,VALID,89.1358,VALID,0,VALID,24.0752,VALID,9,VALID,0.963281,
2008-05-05, 03:15:04,VALID,1002.04,VALID,0,VALID,89.2274,VALID,0,VALID,24.0947,VALID,343,VALID,0.818359,
2008-05-05, 03:16:04,VALID,1002.04,VALID,0,VALID,89.1053,VALID,0.100563,VALID,24.1142,VALID,327,VALID,0.487109,
2008-05-05, 03:17:04,VALID,1002.04,VALID,0,VALID,89.0824,VALID,0,VALID,24.1142,VALID,345,VALID,0.607031,
2008-05-05, 03:18:04,VALID,1002.04,VALID,0,VALID,89.1664,VALID,0,VALID,24.0929,VALID,353,VALID,1.44453,
2008-05-05, 03:19:04,VALID,1001.99,VALID,0,VALID,89.1282,VALID,0,VALID,24.1726,VALID,354,VALID,1.10859,
2008-05-05, 03:20:04,VALID,1001.99,VALID,0,VALID,88.9375,VALID,0,VALID,24.192,VALID,356,VALID,1.20117,
2008-05-05, 03:21:04,VALID,1002,VALID,0,VALID,89.0519,VALID,0,VALID,24.192,VALID,5,VALID,0.958984,
2008-05-05, 03:22:04,VALID,1001.99,VALID,0,VALID,88.9375,VALID,0.100563,VALID,24.1707,VALID,357,VALID,0.439844,
2008-05-05, 03:23:04,VALID,1001.97,VALID,0,VALID,88.9604,VALID,0,VALID,24.2115,VALID,343,VALID,0.458203,
2008-05-05, 03:24:04,VALID,1001.97,VALID,0,VALID,88.7544,VALID,0.100563,VALID,24.231,VALID,349,VALID,0.862891,
2008-05-05, 03:25:04,VALID,1001.95,VALID,0,VALID,88.7544,VALID,0.100563,VALID,24.2097,VALID,351,VALID,0.744922,
2008-05-05, 03:26:04,VALID,1001.97,VALID,0,VALID,88.8612,VALID,0,VALID,24.231,VALID,337,VALID,0.350391,
2008-05-05, 03:27:04,VALID,1001.95,VALID,0,VALID,88.6094,VALID,0.100563,VALID,24.2115,VALID,347,VALID,1.59219,
2008-05-05, 03:28:04,VALID,1001.98,VALID,0,VALID,88.9146,VALID,0.100563,VALID,24.231,VALID,1,VALID,0.901172,
2008-05-05, 03:29:04,VALID,1001.99,VALID,0,VALID,88.7925,VALID,0.100563,VALID,24.2115,VALID,357,VALID,1.22695,
2008-05-05, 03:30:04,VALID,1002.01,VALID,0,VALID,88.4874,VALID,0.100563,VALID,24.231,VALID,350,VALID,1.26523,
2008-05-05, 03:31:04,VALID,1002.02,VALID,0,VALID,88.0983,VALID,0.100563,VALID,24.2699,VALID,357,VALID,1.23867,
2008-05-05, 03:32:04,VALID,1002.02,VALID,0,VALID,88.3424,VALID,0.100563,VALID,24.2894,VALID,1,VALID,1.03086,
2008-05-05, 03:33:04,VALID,1002.04,VALID,0,VALID,88.3348,VALID,0,VALID,24.2894,VALID,349,VALID,0.470703,
2008-05-05, 03:34:04,VALID,1002.03,VALID,0,VALID,88.4721,VALID,0,VALID,24.2699,VALID,354,VALID,0.326562,
2008-05-05, 03:35:04,VALID,1002.04,VALID,0,VALID,88.4721,VALID,0,VALID,24.2504,VALID,3,VALID,1.16719,
2008-05-05, 03:36:04,VALID,1002.03,VALID,0,VALID,88.3806,VALID,0,VALID,24.2504,VALID,354,VALID,0.637891,
2008-05-05, 03:37:04,VALID,1002.01,VALID,0,VALID,88.6476,VALID,0,VALID,24.231,VALID,352,VALID,0.380078,
2008-05-05, 03:38:04,VALID,1002.02,VALID,0,VALID,88.6094,VALID,0,VALID,24.231,VALID,350,VALID,0.411719,
2008-05-05, 03:39:04,VALID,1002.02,VALID,0,VALID,88.4874,VALID,0,VALID,24.1902,VALID,350,VALID,0.733594,
2008-05-05, 03:40:04,VALID,1002.01,VALID,0,VALID,88.4645,VALID,0,VALID,24.192,VALID,343,VALID,0.583984,
2008-05-05, 03:41:04,VALID,1002,VALID,0,VALID,88.2356,VALID,0,VALID,24.2328,VALID,349,VALID,1.11523,
2008-05-05, 03:42:04,VALID,1001.99,VALID,0,VALID,88.2051,VALID,0.100563,VALID,24.231,VALID,358,VALID,0.664453,
2008-05-05, 03:43:04,VALID,1001.97,VALID,0,VALID,88.5332,VALID,0.100563,VALID,24.231,VALID,358,VALID,0.233594,
2008-05-05, 03:44:04,VALID,1001.98,VALID,0,VALID,88.5332,VALID,0,VALID,24.231,VALID,336,VALID,0.0304688,